Погода в Семеновке

Украина / Харьковская область     48°54′00″N   36°44′55″E
темп.,
°C
ветер,
м/с
пор.,
м/с
влажн.,
%
обл.,
%
осадки,
мм/ч
давл.,
гПа
погр.,
м
14 мая, пт
пт1400:00+13юв348799 0.0 101349
03:00+13вюв3690100 0.0 101297
06:00+13вюв31090100 0.1 1011215
09:00+19вюв71068100 0.1 1010425
12:00+23юв7953100 0.0 1010696
15:00+25ююв465199 0.0 10101161
18:00+24ю3558100 0.0 1009260
21:00+18зюз347229 0.0 101051
15 мая, сб
сб1500:00+15зюз33755 0.0 101126
03:00+14юз3481100 0.0 101247
06:00+14зюз36832 0.0 1013131
09:00+19зюз35581 0.0 1013513
12:00+22юз4546100 0.0 10141564
15:00+24юз46437 0.0 10132249
18:00+23ююз355498 0.0 1013426
21:00+18зюз226386 0.0 101316
16 мая, вс
вс1600:00+16всв116797 0.0 101311
03:00+16св226988 0.0 101311
06:00+15всв23768 0.0 101349
09:00+21всв4560100 0.0 1013472
12:00+24всв5652100 0.0 10121276
15:00+26св5650100 0.0 10111793
18:00+23св51068100 0.0 1009289
21:00+19св3584100 0.0 100983
17 мая, пн
пн1700:00+17всв4773100 0.0 100894
03:00+16всв4780100 0.0 1006109
06:00+16вюв387959 0.0 1006158
09:00+21вюв6855100 0.0 1006496
12:00+24вюв7848100 0.0 1005854
15:00+26ю574688 0.0 10051550
18:00+25ю356018 0.0 1005384
21:00+20ю337822 0.0 100734
18 мая, вт
вт1800:00+17ю499253 0.0 1007162
03:00+16юз3796100 0.0 1007150
06:00+16з379660 0.0 1008242
09:00+20зюз347299 0.0 1010742
12:00+24юз455380 0.0 10101416
15:00+24юз56531 0.4 10101713
18:00+22зюз356265 0.0 1010298
21:00+18юз33759 0.0 101122